Tracking 20241 objects as of 26-Jan-2020
HD Live streaming from Space Station
objects crossing your sky now

COSMOS 2251 DEB

Track COSMOS 2251 DEB now!
10-day predictions


NORAD ID: 33821
Int'l Code: 1993-036BN
Perigee: 543.3 km
Apogee: 720.5 km
Inclination: 74.1 °
Period: 97.2 minutes
Semi major axis: 7002 km
RCS: 0.055 m2 (small)
Launch date: June 16, 1993
Source: Commonwealth of Independent States (former USSR) (CIS)
Launch site: PLESETSK MISSILE AND SPACE COMPLEX (PKMTR)

Note: This is SATELLITE DEBRIS
aabbcc
Your satellite tracking list
Your tracking list is empty




NASA's NSSDC Master Catalog

Two Line Element Set (TLE):
1 33821U 93036BN  20025.75734463  .00000247  00000-0  32142-4 0  9995
2 33821  74.0535 130.0913 0126502  24.4328 129.3798 14.81443331589642
Source of the keplerian elements: AFSPC